CCM29A LFML-LFKJ

Flight info

Callsign CCM29A
Flight time 0h 36m
Altitude 23000
Route NASIK P856 EBORA M623 VAREK
Aircraft A320/M-SDE3FGHIRWY/LB1

Departure

Time 2026-05-07 18:01
Airport Marseille Provence Airport (LFML)

Arrival

Time 2026-05-07 18:37
Airport Ajaccio Napoléon Bonaparte airport (LFKJ)
Time Latitude Longitude Altitude Speed Heading
2026-05-07 17:43 43.44015 5.22158 40 ft 0 kts 34°
2026-05-07 17:53 43.44004 5.22147 40 ft 4 kts 31°
2026-05-07 17:53 43.43980 5.22131 36 ft 4 kts 19°
2026-05-07 17:53 43.43954 5.22122 37 ft 4 kts
2026-05-07 17:54 43.43929 5.22126 38 ft 4 kts 329°
2026-05-07 17:54 43.43922 5.22131 40 ft 0 kts 320°
2026-05-07 17:54 43.43923 5.22131 40 ft 0 kts 320°
2026-05-07 17:56 43.43926 5.22128 40 ft 2 kts 320°
2026-05-07 17:56 43.43938 5.22110 38 ft 4 kts 313°
2026-05-07 17:56 43.43971 5.22062 40 ft 14 kts 314°
2026-05-07 17:56 43.43979 5.21960 38 ft 12 kts 224°
2026-05-07 17:57 43.43913 5.21873 38 ft 14 kts 224°
2026-05-07 17:57 43.43914 5.21793 37 ft 15 kts 308°
2026-05-07 17:57 43.43972 5.21633 34 ft 16 kts 247°
2026-05-07 17:57 43.43920 5.21499 33 ft 17 kts 282°
2026-05-07 17:58 43.44006 5.21364 29 ft 21 kts 314°
2026-05-07 17:58 43.44117 5.21207 28 ft 24 kts 314°
2026-05-07 17:58 43.44240 5.21029 21 ft 27 kts 314°
2026-05-07 17:58 43.44349 5.20812 18 ft 28 kts 321°
2026-05-07 17:59 43.44484 5.20613 18 ft 29 kts 313°
2026-05-07 17:59 43.44628 5.20409 18 ft 30 kts 314°
2026-05-07 17:59 43.44777 5.20193 17 ft 32 kts 313°
2026-05-07 17:59 43.44930 5.19980 17 ft 29 kts 315°
2026-05-07 18:00 43.44981 5.19853 17 ft 12 kts 251°
2026-05-07 18:00 43.44915 5.19779 19 ft 13 kts 192°
2026-05-07 18:00 43.44844 5.19830 17 ft 7 kts 133°
2026-05-07 18:00 43.44840 5.19836 17 ft 2 kts 133°
2026-05-07 18:01 43.44651 5.20104 18 ft 78 kts 134°
2026-05-07 18:01 43.44120 5.20859 19 ft 139 kts 134°
2026-05-07 18:01 43.43348 5.21960 231 ft 169 kts 136°
2026-05-07 18:01 43.42575 5.23175 958 ft 171 kts 125°
2026-05-07 18:02 43.42081 5.26443 2091 ft 196 kts 81°
2026-05-07 18:02 43.42346 5.28413 2439 ft 222 kts 81°
2026-05-07 18:02 43.42640 5.30612 2906 ft 246 kts 80°
2026-05-07 18:03 43.42955 5.33002 3611 ft 259 kts 80°
2026-05-07 18:03 43.43175 5.35449 4531 ft 263 kts 92°
2026-05-07 18:03 43.43082 5.37970 5497 ft 265 kts 94°
2026-05-07 18:03 43.42960 5.40520 6458 ft 268 kts 95°
2026-05-07 18:04 43.42830 5.43088 7359 ft 271 kts 95°
2026-05-07 18:04 43.42695 5.45681 8237 ft 275 kts 94°
2026-05-07 18:04 43.42555 5.48345 9065 ft 282 kts 95°
2026-05-07 18:04 43.42418 5.51059 9899 ft 287 kts 95°
2026-05-07 18:05 43.42278 5.53871 10386 ft 306 kts 95°
2026-05-07 18:05 43.42125 5.56903 10664 ft 329 kts 95°
2026-05-07 18:05 43.41960 5.60160 10895 ft 353 kts 95°
2026-05-07 18:05 43.41784 5.63588 11380 ft 364 kts 95°
2026-05-07 18:06 43.41605 5.67101 12054 ft 370 kts 96°
2026-05-07 18:06 43.41427 5.70664 12768 ft 375 kts 95°
2026-05-07 18:06 43.41343 5.74274 13496 ft 380 kts 89°
2026-05-07 18:06 43.41476 5.77931 14160 ft 385 kts 88°
2026-05-07 18:07 43.41610 5.81623 14780 ft 389 kts 88°
2026-05-07 18:07 43.41738 5.85360 15399 ft 393 kts 88°
2026-05-07 18:07 43.41865 5.89138 16017 ft 397 kts 88°
2026-05-07 18:07 43.41993 5.92955 16631 ft 402 kts 88°
2026-05-07 18:08 43.42119 5.96817 17238 ft 406 kts 88°
2026-05-07 18:08 43.42245 6.00663 17844 ft 411 kts 88°
2026-05-07 18:08 43.42380 6.04664 18424 ft 415 kts 88°
2026-05-07 18:08 43.42512 6.08657 18940 ft 420 kts 89°
2026-05-07 18:09 43.42640 6.12638 19430 ft 424 kts 89°
2026-05-07 18:09 43.42768 6.16713 19926 ft 428 kts 89°
2026-05-07 18:09 43.42896 6.20830 20414 ft 432 kts 89°
2026-05-07 18:09 43.43023 6.24981 20889 ft 436 kts 90°
2026-05-07 18:10 43.42878 6.29162 21357 ft 438 kts 98°
2026-05-07 18:10 43.42503 6.33346 21817 ft 442 kts 99°
2026-05-07 18:10 43.42121 6.37562 22259 ft 446 kts 99°
2026-05-07 18:10 43.41736 6.41807 22695 ft 449 kts 99°
2026-05-07 18:11 43.41347 6.46083 22915 ft 452 kts 99°
2026-05-07 18:11 43.41085 6.48960 22941 ft 460 kts 99°
2026-05-07 18:11 43.40548 6.54841 22950 ft 474 kts 99°
2026-05-07 18:11 43.40133 6.59353 22970 ft 477 kts 99°
2026-05-07 18:12 43.39716 6.63883 22972 ft 478 kts 99°
2026-05-07 18:12 43.39298 6.68422 22972 ft 478 kts 99°
2026-05-07 18:12 43.38881 6.72942 22973 ft 478 kts 99°
2026-05-07 18:12 43.38462 6.77471 22974 ft 478 kts 99°
2026-05-07 18:13 43.38037 6.82004 22972 ft 478 kts 99°
2026-05-07 18:13 43.37608 6.86531 22970 ft 478 kts 99°
2026-05-07 18:13 43.37173 6.91070 22976 ft 479 kts 99°
2026-05-07 18:13 43.36737 6.95606 22975 ft 479 kts 99°
2026-05-07 18:14 43.36302 7.00136 22973 ft 479 kts 99°
2026-05-07 18:14 43.35864 7.04671 22973 ft 479 kts 99°
2026-05-07 18:14 43.35424 7.09204 22973 ft 478 kts 99°
2026-05-07 18:14 43.34983 7.13730 22972 ft 478 kts 99°
2026-05-07 18:15 43.34540 7.18257 22973 ft 478 kts 99°
2026-05-07 18:15 43.34096 7.22787 22973 ft 478 kts 99°
2026-05-07 18:15 43.33570 7.27289 22970 ft 476 kts 105°
2026-05-07 18:15 43.32575 7.31607 22973 ft 473 kts 115°
2026-05-07 18:16 43.31089 7.35612 22976 ft 469 kts 125°
2026-05-07 18:16 43.29191 7.39159 22974 ft 465 kts 134°
2026-05-07 18:16 43.26900 7.42257 22973 ft 461 kts 143°
2026-05-07 18:16 43.24356 7.44912 22973 ft 459 kts 147°
2026-05-07 18:17 43.21790 7.47530 22966 ft 459 kts 147°
2026-05-07 18:17 43.19231 7.50148 22966 ft 459 kts 147°
2026-05-07 18:17 43.16667 7.52772 22965 ft 460 kts 147°
2026-05-07 18:17 43.14104 7.55395 22966 ft 460 kts 147°
2026-05-07 18:18 43.11500 7.57937 22954 ft 458 kts 152°
2026-05-07 18:18 43.08694 7.59960 22947 ft 454 kts 160°
2026-05-07 18:18 43.05752 7.61471 22959 ft 452 kts 163°
2026-05-07 18:18 43.02794 7.62932 22961 ft 452 kts 163°
2026-05-07 18:19 42.99830 7.64403 22964 ft 453 kts 163°
2026-05-07 18:19 42.96869 7.65870 22959 ft 453 kts 163°
2026-05-07 18:19 42.93906 7.67336 22959 ft 453 kts 163°
2026-05-07 18:19 42.90941 7.68807 22961 ft 454 kts 163°
2026-05-07 18:20 42.88007 7.70266 22962 ft 454 kts 163°
2026-05-07 18:20 42.84999 7.71759 22964 ft 454 kts 163°
2026-05-07 18:20 42.82067 7.73208 22965 ft 454 kts 163°
2026-05-07 18:20 42.79096 7.74672 22969 ft 454 kts 163°
2026-05-07 18:21 42.76125 7.76135 22971 ft 454 kts 163°
2026-05-07 18:21 42.73155 7.77597 22725 ft 450 kts 163°
2026-05-07 18:21 42.70208 7.79046 21522 ft 452 kts 163°
2026-05-07 18:21 42.67244 7.80503 20485 ft 452 kts 163°
2026-05-07 18:22 42.64305 7.81948 19636 ft 447 kts 162°
2026-05-07 18:22 42.63319 7.82432 19352 ft 446 kts 162°
2026-05-07 18:22 42.58492 7.84801 17916 ft 440 kts 162°
2026-05-07 18:22 42.55628 7.86207 17096 ft 435 kts 162°
2026-05-07 18:23 42.53751 7.87127 16582 ft 431 kts 162°
2026-05-07 18:23 42.50941 7.88501 15820 ft 426 kts 162°
2026-05-07 18:23 42.48165 7.89855 15093 ft 421 kts 161°
2026-05-07 18:23 42.45424 7.91191 14383 ft 416 kts 161°
2026-05-07 18:24 42.41834 7.92939 13441 ft 411 kts 161°
2026-05-07 18:24 42.39160 7.94237 12761 ft 405 kts 161°
2026-05-07 18:24 42.37375 7.95103 12318 ft 401 kts 161°
2026-05-07 18:24 42.34842 7.96496 11663 ft 396 kts 153°
2026-05-07 18:25 42.32592 7.98575 11153 ft 388 kts 140°
2026-05-07 18:25 42.30812 8.01204 11015 ft 371 kts 128°
2026-05-07 18:25 42.29516 8.04175 10888 ft 355 kts 116°
2026-05-07 18:25 42.28605 8.07159 10757 ft 330 kts 114°
2026-05-07 18:26 42.27777 8.09913 10566 ft 306 kts 114°
2026-05-07 18:26 42.26993 8.12505 10127 ft 300 kts 114°
2026-05-07 18:26 42.26212 8.15089 9906 ft 294 kts 114°
2026-05-07 18:26 42.25442 8.17637 9781 ft 293 kts 114°
2026-05-07 18:27 42.24675 8.20176 9652 ft 292 kts 114°
2026-05-07 18:27 42.23912 8.22711 9520 ft 291 kts 114°
2026-05-07 18:27 42.23147 8.25242 9381 ft 291 kts 114°
2026-05-07 18:27 42.22382 8.27765 9244 ft 290 kts 114°
2026-05-07 18:28 42.21618 8.30284 8903 ft 289 kts 114°
2026-05-07 18:28 42.20862 8.32785 8522 ft 287 kts 114°
2026-05-07 18:28 42.20113 8.35271 8137 ft 286 kts 114°
2026-05-07 18:28 42.19366 8.37746 7751 ft 283 kts 114°
2026-05-07 18:29 42.18623 8.40201 7364 ft 282 kts 114°
2026-05-07 18:29 42.17882 8.42636 6981 ft 280 kts 114°
2026-05-07 18:29 42.17146 8.45052 6601 ft 278 kts 114°
2026-05-07 18:29 42.16394 8.47441 6210 ft 275 kts 118°
2026-05-07 18:30 42.15334 8.49553 5836 ft 270 kts 134°
2026-05-07 18:30 42.13961 8.51248 5567 ft 267 kts 142°
2026-05-07 18:30 42.12539 8.52844 5286 ft 265 kts 142°
2026-05-07 18:30 42.11129 8.54431 5001 ft 264 kts 141°
2026-05-07 18:31 42.09724 8.56012 4721 ft 262 kts 141°
2026-05-07 18:31 42.08334 8.57574 4437 ft 259 kts 141°
2026-05-07 18:31 42.06970 8.59104 4197 ft 250 kts 141°
2026-05-07 18:31 42.05652 8.60576 3952 ft 242 kts 141°
2026-05-07 18:32 42.04390 8.61983 3704 ft 235 kts 140°
2026-05-07 18:32 42.03152 8.63372 3452 ft 229 kts 140°
2026-05-07 18:32 42.01952 8.64740 3209 ft 223 kts 135°
2026-05-07 18:32 42.01039 8.66377 3036 ft 215 kts 117°
2026-05-07 18:33 42.00563 8.68224 2982 ft 203 kts 101°
2026-05-07 18:33 42.00343 8.69982 3015 ft 177 kts 101°
2026-05-07 18:33 42.00148 8.71505 2986 ft 153 kts 101°
2026-05-07 18:33 41.99973 8.72870 3007 ft 144 kts 99°
2026-05-07 18:34 41.99799 8.74195 2857 ft 144 kts 99°
2026-05-07 18:34 41.99627 8.75504 2595 ft 141 kts 100°
2026-05-07 18:34 41.99454 8.76801 2359 ft 141 kts 99°
2026-05-07 18:34 41.99281 8.78102 2127 ft 142 kts 98°
2026-05-07 18:35 41.99106 8.79422 1881 ft 143 kts 99°
2026-05-07 18:35 41.98920 8.80737 1664 ft 143 kts 105°
2026-05-07 18:35 41.98426 8.81878 1435 ft 143 kts 134°
2026-05-07 18:35 41.97601 8.82593 1208 ft 142 kts 161°
2026-05-07 18:36 41.96631 8.82739 1013 ft 141 kts 187°
2026-05-07 18:36 41.95711 8.82318 794 ft 141 kts 205°
2026-05-07 18:36 41.94825 8.81762 552 ft 141 kts 204°
2026-05-07 18:36 41.93942 8.81204 305 ft 139 kts 204°
2026-05-07 18:37 41.93060 8.80664 85 ft 138 kts 204°
2026-05-07 18:37 41.92248 8.80157 19 ft 109 kts 205°
2026-05-07 18:37 41.91720 8.79828 16 ft 59 kts 205°
2026-05-07 18:37 41.91460 8.79665 18 ft 35 kts 205°
2026-05-07 18:38 41.91302 8.79567 23 ft 20 kts 204°
2026-05-07 18:38 41.91248 8.79447 25 ft 15 kts 294°
2026-05-07 18:38 41.91325 8.79379 26 ft 12 kts 331°
2026-05-07 18:38 41.91386 8.79340 27 ft 12 kts 341°
2026-05-07 18:39 41.91498 8.79357 26 ft 19 kts 24°
2026-05-07 18:39 41.91620 8.79434 26 ft 20 kts 25°
2026-05-07 18:39 41.91755 8.79516 26 ft 20 kts 24°
2026-05-07 18:39 41.91849 8.79576 30 ft 14 kts 25°
2026-05-07 18:40 41.91945 8.79638 29 ft 16 kts 25°
2026-05-07 18:40 41.92044 8.79699 29 ft 15 kts 24°
2026-05-07 18:40 41.92094 8.79722 29 ft 5 kts 349°
2026-05-07 18:40 41.92114 8.79696 26 ft 4 kts 307°
2026-05-07 18:41 41.92131 8.79685 29 ft 0 kts 342°